Regional Weather Roundup
Issued by NWS

Home | Current Version | Previous Version | Text Only | Print | Product List | Glossary Off
Versions: 1 2 3 4 5 6 7 8 9 10 11 12 13 14 15 16 17 18 19 20 21 22 23 24 25 26 27 28 29 30 31 32 33 34 35 36 37 38 39 40 41 42 43 44 45 46 47 48 49 50

000
ASUS45 KPSR 281100
RWRAZ

ARIZONA HOURLY REGIONAL WEATHER ROUNDUP
NATIONAL WEATHER SERVICE PHOENIX AZ
400 AM MST TUE JUL 28 2015

NOTE: FAIR INDICATES FEW OR NO CLOUDS BELOW 12,000 FEET WITH NO
SIGNIFICANT WEATHER AND/OR OBSTRUCTIONS TO VISIBILITY.

AZZ001>003-036-281200-
NORTHWEST ARIZONA

CITY           SKY/WX    TMP DP  RH WIND       PRES   REMARKS
KINGMAN        CLEAR     69  33  26 SE12      29.98R
$$

AZZ004>008-015-016-018-281200-
NORTH CENTRAL ARIZONA

CITY           SKY/WX    TMP DP  RH WIND       PRES   REMARKS
GRAND CANYON   CLEAR     41  21  44 CALM      30.23R
WILLIAMS       CLEAR     50  30  46 S8        30.30R
PRESCOTT       CLEAR     64  43  46 SW7       30.11S
FLAGSTAFF      NOT AVBL
PAYSON         PTCLDY    68  48  49 CALM      30.13S
PAGE           CLEAR     74  27  17 W6        30.03R
$$

AZZ009>014-017-281200-
NORTHEAST ARIZONA

CITY           SKY/WX    TMP DP  RH WIND       PRES   REMARKS
WINSLOW        NOT AVBL
SAINT JOHNS    MOCLDY    63  47  55 S3        30.16R
WINDOW ROCK    MOCLDY    64  40  41 CALM      30.23R
SHOW LOW       MOCLDY    63  45  51 CALM      30.23R
$$

AZZ023-281200-
GREATER PHOENIX AREA

CITY           SKY/WX    TMP DP  RH WIND       PRES   REMARKS
PHOENIX        PTCLDY    91  58  32 W10       29.81R
DEER VALLEY    PTCLDY    87  57  35 W7        29.83S
SCOTTSDALE     PTCLDY    89  57  33 W3        29.85S
$$

AZZ027-028-281200-
SOUTHWEST MARICOPA COUNTY AND PINAL COUNTY

CITY           SKY/WX    TMP DP  RH WIND       PRES   REMARKS
CASA GRANDE    PTCLDY    84  55  37 CALM      29.84R
GILA BEND      FAIR      83  57  40 NE3       29.80R
$$

AZZ503-504-507>509-281200-
SOUTHEAST ARIZONA

CITY           SKY/WX    TMP DP  RH WIND       PRES   REMARKS
TUCSON         MOCLDY    83  61  47 SE8       29.96R
NOGALES        PTCLDY    68  62  81 CALM      30.05F
SIERRA VISTA   PTCLDY    69  58  67 S3        30.11R
SAFFORD        PTCLDY    79  47  32 NW9       29.94R
$$

AZZ020-021-025-026-031-281200-
SOUTHWEST ARIZONA

CITY           SKY/WX    TMP DP  RH WIND       PRES   REMARKS
YUMA           NOT AVBL
$$

CAZ031-033-041-043-047-048-061-281200-
SOUTHERN CALIFORNIA

CITY           SKY/WX    TMP DP  RH WIND       PRES   REMARKS
DOWNTOWN L.A.  CLOUDY    67  62  84 CALM      29.87F
L.A. AIRPORT   MOCLDY    67  63  87 CALM      29.88S
SAN DIEGO      MOCLDY    68  60  75 CALM      29.90S
BURBANK        CLEAR     67  61  81 CALM      29.88S
ONTARIO        CLEAR     65  59  81 W3        29.89S
RIVERSIDE      CLEAR     67  59  75 CALM      29.89S
PALM SPRINGS   CLEAR     80  55  42 CALM      29.78S
EL CENTRO NAS  CLEAR     76  42  29 CALM      29.75S
IMPERIAL       CLEAR     81  58  45 SE3       29.73S
BLYTHE         CLEAR     83  58  42 S8        29.76S
$$

NVZ020-UTZ003-281200-
SOUTHERN NEVADA-UTAH

CITY           SKY/WX    TMP DP  RH WIND       PRES   REMARKS
LAS VEGAS      NOT AVBL
SALT LAKE CITY CLEAR     55  38  52 S3        30.20R
$$

NMZ009-TXZ055-281200-
NEW MEXICO-WEST TEXAS

CITY           SKY/WX    TMP DP  RH WIND       PRES   REMARKS
ALBUQUERQUE    PTCLDY    77  51  40 S12       30.09S
EL PASO        MOCLDY    80  55  42 SW13      30.01S
$$


........................KEY........................
SKY/WX - SKY CONDITION/WEATHER
TMP    - TEMPERATURE IN FAHRENHEIT
DP     - DEW POINT IN FAHRENHEIT
RH     - RELATIVE HUMIDITY IN PERCENT
WIND   - DIRECTION AND SPEED IN MILES PER HOUR (MPH)
VRB    - VARIABLE WIND DIRECTION
PRES   - MEAN SEA LEVEL PRESSURE IN INCHES OF MERCURY
         F - FALLING PRESSURE   R - RISING PRESSURE
         S - STEADY PRESSURE
VSB    - VISIBILITY IN MILES
HX     - HEAT INDEX IN FAHRENHEIT
WCI    - WIND CHILL INDEX IN FAHRENHEIT
TC     - TEMPERATURE IN CELSIUS WHICH IS ALSO KNOWN AS
         TEMPERATURE IN CENTIGRADE
AFB    - AIR FORCE BASE
         LUKE AFB IS LUKE AIR FORCE BASE
         DAVIS-MONTHAN IS DAVIS-MONTHAN AIR FORCE BASE
NAS    - NAVAL AIR STATION
         EL CENTRO NAS IS EL CENTRO NAVAL AIR STATION
N/A    - NOT AVAILABLE




USA.gov is the U.S. government's official web portal to all federal, state and local government web resources and services.